Date,TemperatureHighF,TemperatureAvgF,TemperatureLowF,DewpointHighF,DewpointAvgF,DewpointLowF,HumidityHigh,HumidityAvg,HumidityLow,PressureMaxIn,PressureMinIn,WindSpeedMaxMPH,WindSpeedAvgMPH,GustSpeedMaxMPH,PrecipitationSumIn
2013-1-1,74.7,61.0,49.3,59.8,53.6,46.7,94,78,57,30.47,30.29,0,0,0,0.00
2013-1-2,76.9,64.8,54.6,67.6,60.5,51.7,95,86,70,30.32,30.24,0,0,0,0.00
2013-1-3,68.8,61.9,56.5,64.6,59.9,54.8,96,93,85,30.42,30.27,0,0,0,0.25
2013-1-4,59.1,55.8,52.8,57.0,54.0,51.2,95,94,91,30.53,30.40,27,1,27,0.12
2013-1-5,69.3,59.5,52.9,59.7,54.5,49.1,93,84,68,30.55,30.42,0,0,0,0.00
2013-1-6,75.6,63.3,58.3,67.7,60.1,55.8,96,90,73,30.45,30.32,0,0,0,0.00
2013-1-7,65.0,60.3,56.7,60.6,56.5,51.6,95,87,74,30.46,30.35,0,0,0,0.02
2013-1-8,78.7,67.1,58.3,68.0,61.7,56.7,95,84,63,30.47,30.37,0,0,0,0.00
2013-1-9,80.3,70.9,65.2,69.1,65.0,62.1,95,82,62,30.54,30.41,0,0,0,0.00
2013-1-10,78.3,70.5,65.4,67.5,64.1,61.4,95,81,58,30.54,30.45,0,0,0,0.00
2013-1-11,79.9,69.2,60.7,66.4,61.6,58.0,94,78,55,30.51,30.38,0,0,0,0.00
2013-1-12,80.5,69.0,61.0,67.3,63.1,58.6,94,82,59,30.43,30.33,0,0,0,0.00
2013-1-13,78.1,68.9,61.9,66.6,62.4,58.7,91,80,63,30.42,30.31,0,0,0,0.00
2013-1-14,80.5,67.8,59.2,65.0,59.7,55.0,93,77,51,30.44,30.36,0,0,0,0.00
2013-1-15,80.1,66.6,58.0,65.8,59.7,55.0,94,80,57,30.40,30.30,14,0,14,0.00
2013-1-16,81.2,67.6,59.1,65.7,60.1,57.1,95,79,49,30.36,30.25,0,0,0,0.00
2013-1-17,66.3,59.1,51.3,65.1,54.4,42.7,96,85,67,30.41,30.23,0,0,0,0.19
2013-1-18,60.3,51.9,40.0,51.2,43.3,33.1,77,72,63,30.57,30.40,14,0,14,0.00
2013-1-19,72.4,61.6,51.3,58.6,52.5,44.1,84,72,60,30.53,30.37,0,0,0,0.00
2013-1-20,73.3,62.9,56.7,60.8,56.0,52.2,89,78,64,30.43,30.29,0,0,0,0.02
2013-1-21,72.9,62.6,56.7,61.7,54.4,49.0,85,75,60,30.36,30.28,0,0,0,0.00
2013-1-22,65.7,56.9,48.4,49.3,38.6,28.8,77,53,29,30.54,30.33,0,0,0,0.00
2013-1-23,66.6,53.2,42.7,41.7,37.0,31.1,80,56,34,30.63,30.52,0,0,0,0.00
2013-1-24,69.0,53.3,40.9,51.4,44.2,37.3,89,73,44,30.60,30.50,0,0,0,0.00
2013-1-25,70.9,55.1,43.2,56.7,46.9,40.7,93,76,44,30.57,30.44,0,0,0,0.00
2013-1-26,71.1,57.8,46.3,58.0,51.4,44.1,93,81,58,30.54,30.43,0,0,0,0.00
2013-1-27,74.9,60.4,48.1,59.6,52.6,45.8,94,78,46,30.57,30.46,0,0,0,0.00
2013-1-28,77.8,67.1,60.1,64.8,59.7,55.5,93,78,54,30.57,30.45,0,0,0,0.00
2013-1-29,81.7,68.8,60.9,66.9,62.5,58.8,96,81,56,30.48,30.33,0,0,0,0.00
2013-1-30,78.7,70.0,63.4,65.8,63.2,60.4,90,80,61,30.34,30.16,0,0,0,0.00
2013-1-31,67.9,55.2,46.3,64.0,43.0,32.1,91,65,41,30.50,30.17,0,0,0,0.14
2013-2-1,65.4,52.7,43.2,41.5,34.5,13.0,71,53,25,30.62,30.48,0,0,0,0.00
2013-2-2,68.4,53.8,43.9,43.9,39.0,30.5,76,59,25,30.57,30.42,14,0,14,0.00
2013-2-3,68.2,52.8,40.9,52.7,44.8,37.2,89,75,57,30.46,30.34,0,0,0,0.00
2013-2-4,67.2,51.6,40.9,51.5,41.0,37.2,91,71,34,30.40,30.30,0,0,0,0.00
2013-2-5,74.5,56.6,42.1,53.0,45.6,38.2,89,69,44,30.36,30.25,0,0,0,0.00
2013-2-6,76.5,64.8,54.9,59.9,56.3,50.2,89,75,54,30.36,30.27,11,0,11,0.00
2013-2-7,79.9,67.3,59.2,63.9,60.6,55.1,93,80,51,30.31,30.13,0,0,0,0.12
2013-2-8,73.5,63.8,55.5,63.5,58.5,52.4,94,83,64,30.34,30.15,0,0,0,0.00
2013-2-9,73.6,61.1,51.9,55.9,52.4,49.0,94,75,46,30.45,30.32,0,0,0,0.00
2013-2-10,78.0,66.8,58.9,61.3,57.4,52.6,86,73,54,30.50,30.38,0,0,0,0.00
2013-2-11,81.0,68.5,60.1,65.4,61.2,56.5,90,78,58,30.45,30.33,0,0,0,0.00
2013-2-12,80.3,70.1,63.0,69.4,65.4,60.6,95,86,68,30.35,30.20,0,0,0,0.00
2013-2-13,79.2,68.9,58.2,70.8,65.1,53.2,96,88,74,30.25,30.11,0,0,0,0.45
2013-2-14,62.1,59.0,56.5,58.6,56.3,54.2,94,91,86,30.31,30.18,0,0,0,0.33
2013-2-15,65.2,56.6,52.6,55.3,51.8,47.5,95,84,68,30.34,30.21,0,0,0,0.00
2013-2-16,66.6,55.4,47.7,52.3,44.5,32.8,87,68,48,30.40,30.20,0,0,0,0.00
2013-2-17,51.7,44.8,36.0,33.9,24.7,16.6,74,46,33,30.60,30.40,0,0,0,0.00
2013-2-18,65.7,49.8,35.1,46.3,35.9,28.0,80,61,38,30.62,30.45,0,0,0,0.00
2013-2-19,76.0,61.8,48.6,58.7,52.8,43.7,90,74,51,30.47,30.33,0,0,0,0.00
2013-2-20,75.1,63.1,57.6,62.6,57.5,51.7,94,83,63,30.38,30.27,14,0,14,0.00
2013-2-21,81.0,67.1,57.8,66.5,60.2,51.7,90,79,59,30.36,30.24,14,0,14,0.00
2013-2-22,85.2,70.9,60.5,71.0,64.8,58.2,95,82,59,30.32,30.24,14,0,14,0.00
2013-2-23,80.1,72.2,67.5,73.2,68.7,65.1,95,89,77,30.27,30.16,0,0,0,0.00
2013-2-24,82.1,71.5,66.8,73.2,68.0,64.7,96,89,73,30.22,30.13,0,0,0,0.00
2013-2-25,84.8,74.1,66.8,71.8,68.5,65.0,95,84,61,30.16,30.03,0,0,0,0.00
2013-2-26,76.7,71.0,65.0,71.0,66.5,60.4,94,86,69,30.15,29.95,14,0,14,0.34
2013-2-27,72.2,64.5,57.8,60.5,56.1,51.6,87,74,58,30.25,30.13,14,0,14,0.00
2013-2-28,73.7,63.0,53.5,56.8,52.4,47.0,88,69,52,30.27,30.16,14,0,14,0.00
2013-3-1,63.0,57.2,51.5,48.2,43.4,38.0,75,60,52,30.29,30.17,0,0,0,0.00
2013-3-2,60.3,54.0,47.9,43.3,39.4,35.9,70,58,48,30.34,30.24,0,0,0,0.00
2013-3-3,56.0,48.4,43.1,38.7,34.5,28.3,65,58,50,30.42,30.25,0,0,0,0.00
2013-3-4,64.8,52.2,41.1,39.6,35.6,29.4,80,55,38,30.50,30.38,0,0,0,0.00
2013-3-5,74.7,58.9,41.1,59.9,49.9,36.9,88,74,49,30.43,30.29,14,0,14,0.00
2013-3-6,65.0,58.9,52.8,62.6,46.3,39.9,92,64,45,30.40,30.22,0,0,0,0.02
2013-3-7,63.8,52.3,43.6,41.5,37.5,32.3,83,58,37,30.49,30.39,14,0,14,0.00
2013-3-8,71.5,55.6,40.5,50.4,43.4,37.5,90,67,37,30.50,30.39,0,0,0,0.08
2013-3-9,75.1,62.0,50.6,52.8,48.3,45.1,84,63,36,30.48,30.38,0,0,0,0.00
2013-3-10,78.3,66.4,57.6,57.8,54.8,51.2,85,67,46,30.41,30.29,0,0,0,0.00
2013-3-11,80.5,68.8,59.6,62.4,58.2,54.6,87,70,48,30.35,30.13,14,0,14,0.00
2013-3-12,68.1,64.1,57.3,65.4,58.4,50.7,94,82,69,30.32,30.10,14,0,14,0.29
2013-3-13,70.8,61.5,54.9,51.4,45.0,33.1,79,57,28,30.45,30.30,14,0,14,0.00
2013-3-14,64.3,57.1,49.7,49.9,37.7,26.2,77,50,26,30.54,30.42,0,0,0,0.00
2013-3-15,71.9,56.7,41.6,50.5,41.0,35.3,89,59,30,30.55,30.42,0,0,0,0.00
2013-3-16,78.0,60.3,44.1,54.4,47.6,40.7,93,67,33,30.45,30.33,14,0,14,0.00
2013-3-17,80.7,63.2,49.7,61.4,55.1,46.6,94,76,50,30.39,30.26,0,0,0,0.00
2013-3-18,74.7,67.8,60.0,67.4,62.1,56.1,90,82,73,30.29,30.13,0,0,0,0.00
2013-3-19,86.1,70.3,61.2,68.9,63.0,59.4,96,79,52,30.28,30.15,0,0,0,0.00
2013-3-20,72.2,65.8,58.5,66.6,61.4,55.7,91,86,72,30.24,30.07,0,0,0,0.14
2013-3-21,69.7,59.0,47.0,56.3,43.9,34.8,93,61,30,30.26,30.14,0,0,0,0.00
2013-3-22,78.2,61.5,45.8,65.3,51.9,41.0,93,73,43,30.27,30.14,0,0,0,1.19
2013-3-23,83.4,71.7,64.7,74.9,68.0,62.9,95,88,73,30.23,30.05,27,4,27,0.00
2013-3-24,81.9,73.1,67.9,74.6,69.9,64.8,94,90,77,30.07,29.91,27,5,27,0.00
2013-3-25,67.9,62.2,55.5,64.8,49.4,38.7,93,64,41,30.31,30.01,27,3,27,0.00
2013-3-26,58.7,54.4,47.7,45.6,37.2,31.8,65,52,42,30.52,30.30,0,0,0,0.00
2013-3-27,58.5,49.8,41.6,39.8,34.9,29.6,78,57,42,30.59,30.48,0,0,0,0.00
2013-3-28,70.2,55.8,42.0,43.1,37.8,30.9,86,56,29,30.56,30.46,0,0,0,0.00
2013-3-29,77.4,59.9,45.9,52.7,44.4,37.4,90,61,27,30.59,30.46,0,0,0,0.00
2013-3-30,79.4,63.6,48.6,57.5,50.3,43.7,90,65,37,30.52,30.39,0,0,0,0.00
2013-3-31,83.0,67.2,54.2,60.7,56.4,51.0,92,70,41,30.42,30.26,14,0,14,0.00
2013-4-1,83.4,72.4,65.0,69.7,64.4,59.8,90,77,55,30.29,30.21,0,0,0,0.00
2013-4-2,85.9,70.7,60.3,68.8,62.2,58.1,95,76,45,30.35,30.26,0,0,0,0.00
2013-4-3,87.7,73.0,61.8,69.6,64.8,58.5,93,77,51,30.34,30.20,14,0,14,0.04
2013-4-4,74.0,69.4,66.6,70.0,66.0,63.6,93,89,75,30.30,30.11,0,0,0,0.53
2013-4-5,74.0,66.6,61.4,65.7,61.0,55.2,94,83,61,30.27,30.06,20,0,20,0.40
2013-4-6,77.4,64.9,54.9,59.6,55.3,49.9,84,72,51,30.37,30.25,0,0,0,0.00
2013-4-7,84.5,70.9,60.7,63.8,59.3,56.8,92,69,40,30.41,30.30,0,0,0,0.00
2013-4-8,87.5,74.5,65.7,65.1,61.1,56.4,84,65,36,30.38,30.29,0,0,0,0.00
2013-4-9,86.6,74.6,63.2,69.4,64.0,59.6,92,71,49,30.41,30.31,0,0,0,0.00
2013-4-10,87.9,76.1,66.6,69.0,64.4,61.0,88,68,47,30.37,30.22,0,0,0,0.00
2013-4-11,90.6,78.5,71.3,73.6,70.0,64.2,91,76,54,30.23,30.06,0,0,0,0.00
2013-4-12,78.7,75.3,70.4,74.2,71.3,67.0,92,88,82,30.18,30.03,0,0,0,0.00
2013-4-13,88.4,75.7,67.0,71.8,66.9,63.0,94,75,52,30.23,30.13,0,0,0,0.00
2013-4-14,86.1,75.0,67.0,74.1,68.1,60.6,89,79,63,30.26,30.10,0,0,0,0.05
2013-4-15,90.0,77.1,67.2,71.4,65.4,60.4,84,68,49,30.33,30.16,0,0,0,0.00
2013-4-16,93.5,79.9,67.7,74.4,68.9,64.0,93,71,44,30.39,30.27,0,0,0,0.00
2013-4-17,90.2,79.5,69.2,70.3,65.6,61.8,88,64,40,30.40,30.26,0,0,0,0.00
2013-4-18,90.2,79.2,69.5,71.1,67.5,64.0,86,69,47,30.30,30.19,0,0,0,0.00
2013-4-19,91.8,80.8,72.2,74.6,71.0,68.2,91,73,48,30.27,30.19,0,0,0,0.00
2013-4-20,75.8,69.2,61.2,71.7,62.4,56.3,87,79,67,30.40,30.23,0,0,0,0.00
2013-4-21,84.1,70.1,60.9,69.4,63.2,55.9,91,79,60,30.40,30.28,0,0,0,0.04
2013-4-22,82.8,72.3,65.9,70.4,66.1,61.9,95,82,61,30.34,30.23,0,0,0,0.28
2013-4-23,86.8,74.5,65.0,68.3,63.8,59.6,89,71,49,30.37,30.26,0,0,0,0.00
2013-4-24,88.4,74.5,64.7,65.9,62.4,54.6,87,68,34,30.40,30.32,0,0,0,0.00
2013-4-25,88.4,75.8,62.7,70.5,65.2,59.7,92,71,51,30.46,30.35,0,0,0,0.00
2013-4-26,90.8,77.6,65.2,70.4,65.9,61.0,90,68,43,30.50,30.40,0,0,0,0.00
2013-4-27,89.5,77.9,70.4,69.8,66.7,62.7,89,69,43,30.47,30.33,0,0,0,0.00
2013-4-28,89.0,77.9,68.4,68.9,65.0,61.3,83,66,41,30.38,30.22,0,0,0,0.00
2013-4-29,88.4,77.6,68.6,69.9,66.6,60.9,85,70,50,30.28,30.16,0,0,0,0.02
2013-4-30,90.9,77.7,68.1,71.2,68.0,63.3,92,74,41,30.26,30.16,0,0,0,0.51
2013-5-1,74.6,71.2,67.5,71.6,68.2,65.1,93,90,87,30.26,30.16,0,0,0,0.72
2013-5-2,82.5,72.6,66.1,72.7,67.5,63.8,93,84,68,30.22,30.06,0,0,0,0.00
2013-5-3,85.7,75.1,68.3,74.3,69.0,66.2,94,82,60,30.09,29.99,0,0,0,0.44
2013-5-4,83.2,79.0,73.8,69.4,68.2,66.6,85,69,61,30.02,29.98,27,1,27,0.00
2013-5-5,76.9,73.2,67.5,54.1,52.1,50.2,60,48,42,30.19,30.14,26,0,26,0.00
2013-5-6,77.6,75.4,72.9,59.5,57.7,56.1,58,54,50,30.27,30.22,0,0,0,0.00
2013-5-7,77.6,72.2,66.6,62.6,60.0,58.6,76,65,54,30.31,30.25,24,0,24,0.00
2013-5-8,83.6,72.0,58.7,66.6,60.0,55.1,91,68,46,30.39,30.28,27,2,27,0.00
2013-5-9,88.8,74.0,60.0,69.6,62.4,57.3,93,69,41,30.40,30.33,0,0,0,0.00
2013-5-10,94.5,77.9,63.6,72.9,66.1,59.9,93,70,39,30.40,30.25,14,0,14,0.00
2013-5-11,92.2,78.9,70.4,76.1,70.6,65.8,93,77,51,30.31,30.25,0,0,0,0.00
2013-5-12,91.1,78.4,69.5,74.9,69.0,65.5,93,74,52,30.31,30.19,0,0,0,0.00
2013-5-13,86.3,74.8,66.8,68.6,59.0,47.2,89,61,32,30.40,30.27,0,0,0,0.00
2013-5-14,86.4,73.2,58.9,59.1,48.4,41.6,69,44,25,30.47,30.37,0,0,0,0.00
2013-5-15,91.1,76.8,63.2,65.6,59.2,54.7,81,56,32,30.46,30.32,0,0,0,0.00
2013-5-16,91.1,78.2,66.3,68.0,63.0,58.3,84,62,35,30.39,30.25,0,0,0,0.00
2013-5-17,93.6,80.0,68.4,69.3,65.4,62.2,82,63,42,30.35,30.27,0,0,0,0.00
2013-5-18,95.4,80.7,71.7,75.0,68.9,65.2,89,69,44,30.37,30.27,0,0,0,0.00
2013-5-19,93.5,80.9,68.4,75.1,67.5,65.0,92,66,43,30.35,30.24,0,0,0,0.00
2013-5-20,95.3,81.0,72.0,74.3,69.3,65.0,85,69,42,30.32,30.23,0,0,0,0.00
2013-5-21,94.4,78.5,69.9,74.2,69.5,66.2,91,75,48,30.29,30.17,0,0,0,0.07
2013-5-22,90.2,79.7,71.7,75.7,70.7,68.1,89,75,55,30.24,30.15,0,0,0,0.04
2013-5-23,92.0,80.9,69.9,75.7,70.8,66.8,92,73,54,30.27,30.17,0,0,0,0.00
2013-5-24,94.2,82.6,71.7,76.6,70.4,64.3,92,69,40,30.34,30.23,0,0,0,0.00
2013-5-25,96.5,83.8,72.6,70.9,65.1,60.4,82,56,33,30.43,30.31,0,0,0,0.00
2013-5-26,93.6,80.7,70.6,65.1,58.9,52.3,74,50,26,30.47,30.35,0,0,0,0.00
2013-5-27,94.7,81.2,68.3,67.7,63.2,60.3,82,56,34,30.44,30.30,0,0,0,0.00
2013-5-28,96.2,80.9,71.0,73.2,69.8,66.2,87,70,44,30.40,30.27,0,0,0,0.00
2013-5-29,91.8,80.8,73.8,74.9,70.8,67.1,89,72,54,30.35,30.27,14,0,14,0.02
2013-5-30,93.1,82.3,74.9,73.9,71.3,67.6,89,70,51,30.34,30.25,14,0,14,0.00
2013-5-31,94.7,81.8,74.7,74.1,71.0,68.4,82,70,48,30.34,30.25,0,0,0,0.00
2013-6-1,97.8,81.7,73.1,76.8,72.7,69.4,91,75,47,30.31,30.20,0,0,0,1.67
2013-6-2,92.7,82.3,73.3,77.7,74.0,70.8,93,77,56,30.26,30.15,24,1,24,0.00
2013-6-3,92.4,81.0,73.8,78.4,73.5,70.9,93,78,59,30.26,30.15,27,7,27,0.00
2013-6-4,91.1,80.9,75.1,77.2,73.0,70.3,90,78,57,30.27,30.19,27,11,27,0.00
2013-6-5,88.4,79.4,74.4,76.0,72.4,69.9,90,79,60,30.27,30.14,14,0,14,0.10
2013-6-6,83.0,76.7,72.9,76.8,72.6,70.3,96,88,74,30.15,29.90,27,7,27,3.10
2013-6-7,92.4,82.3,71.0,77.8,72.7,68.0,93,74,58,30.22,30.03,27,8,27,0.00
2013-6-8,93.1,80.9,73.3,78.1,73.5,70.1,92,79,58,30.36,30.22,27,6,27,1.29
2013-6-9,93.6,81.0,73.1,78.1,73.7,70.6,94,79,54,30.36,30.27,27,9,27,0.06
2013-6-10,92.9,83.0,75.6,79.1,74.4,71.6,92,76,58,30.34,30.27,14,0,14,0.00
2013-6-11,92.4,82.4,75.8,81.3,75.0,71.3,91,79,53,30.35,30.27,0,0,0,0.55
2013-6-12,95.3,83.9,72.9,79.8,74.4,70.4,94,74,56,30.34,30.26,0,0,0,0.24
2013-6-13,93.6,84.2,74.2,80.3,73.7,71.2,93,72,51,30.31,30.17,27,1,27,0.00
2013-6-14,93.3,83.1,75.8,76.7,73.6,71.0,86,73,54,30.22,30.14,24,0,24,0.00
2013-6-15,94.0,83.7,77.4,78.4,75.5,72.9,89,77,58,30.32,30.17,0,0,0,0.00
2013-6-16,96.0,85.1,78.5,79.9,76.1,73.8,89,75,55,30.34,30.27,0,0,0,0.00
2013-6-17,97.1,87.1,76.5,80.4,75.3,72.7,90,69,51,30.33,30.24,0,0,0,0.00
2013-6-18,97.1,85.8,75.3,81.3,75.2,72.2,92,72,54,30.32,30.23,0,0,0,0.00
2013-6-19,96.7,86.4,76.9,80.7,75.4,72.8,90,71,50,30.29,30.23,0,0,0,0.00
2013-6-20,95.4,84.1,75.8,80.8,73.9,69.7,91,73,50,30.35,30.26,14,0,14,0.39
2013-6-21,93.6,80.2,73.7,77.0,72.0,69.2,89,77,56,30.36,30.28,0,0,0,0.00
2013-6-22,93.6,83.1,74.0,76.7,72.1,69.6,90,71,50,30.37,30.29,0,0,0,0.00
2013-6-23,96.3,83.3,75.8,77.0,73.5,69.7,88,74,45,30.38,30.31,0,0,0,0.25
2013-6-24,95.6,84.7,76.2,76.5,74.0,70.7,89,72,47,30.42,30.31,0,0,0,0.22
2013-6-25,96.0,84.6,73.8,79.7,73.9,69.8,92,72,47,30.39,30.28,27,7,27,0.49
2013-6-26,93.6,78.6,74.0,78.7,73.1,70.3,93,84,59,30.33,30.24,0,0,0,8.61
2013-6-27,95.1,83.9,72.6,80.0,74.3,69.8,94,74,52,30.31,30.19,14,0,14,0.00
2013-6-28,94.9,84.5,74.7,79.9,75.1,71.9,92,74,55,30.23,30.10,0,0,0,0.00
2013-6-29,89.7,80.7,76.5,79.2,74.7,71.6,89,82,69,30.14,30.05,0,0,0,0.45
2013-6-30,92.6,83.3,75.1,80.4,75.4,71.7,92,78,61,30.13,30.05,0,0,0,0.20
2013-7-1,80.5,76.2,72.9,77.5,73.3,70.4,95,91,86,30.24,30.07,27,2,27,1.94
2013-7-2,93.8,80.1,72.4,80.0,73.7,70.9,96,82,58,30.33,30.19,27,1,27,2.12
2013-7-3,93.8,78.4,73.5,79.4,73.4,69.3,93,85,60,30.36,30.27,14,0,14,1.71
2013-7-4,94.2,79.6,73.5,78.5,73.4,70.6,94,82,58,30.40,30.30,0,0,0,0.51
2013-7-5,93.8,79.5,73.5,78.2,74.0,70.4,94,84,58,30.39,30.31,0,0,0,0.59
2013-7-6,94.4,83.0,74.4,78.0,74.7,72.2,94,77,52,30.36,30.27,0,0,0,0.06
2013-7-7,97.2,83.4,76.5,78.1,74.9,72.4,90,77,49,30.39,30.27,0,0,0,0.19
2013-7-8,97.1,84.1,75.8,78.1,74.6,70.0,91,75,47,30.42,30.32,0,0,0,0.71
2013-7-9,97.4,84.1,73.5,78.7,73.8,68.7,93,73,44,30.42,30.29,0,0,0,0.00
2013-7-10,94.4,83.7,75.1,78.1,73.2,70.5,89,71,51,30.35,30.22,0,0,0,0.06
2013-7-11,90.8,81.2,74.7,82.6,74.7,71.2,93,81,65,30.29,30.18,0,0,0,1.02
2013-7-12,93.5,82.0,74.0,79.7,74.2,71.5,94,78,54,30.22,30.14,0,0,0,0.33
2013-7-13,90.2,78.7,74.2,80.9,73.8,71.3,94,85,65,30.23,30.16,0,0,0,0.55
2013-7-14,87.5,79.5,74.0,78.8,74.2,71.5,94,84,71,30.33,30.20,0,0,0,0.24
2013-7-15,93.8,82.2,74.7,75.8,73.2,71.1,90,75,51,30.37,30.27,14,0,14,0.00
2013-7-16,94.4,81.1,75.6,76.2,72.8,70.2,91,77,51,30.41,30.32,14,0,14,0.00
2013-7-17,95.8,79.6,72.2,77.2,72.9,65.5,93,81,51,30.42,30.31,0,0,0,1.66
2013-7-18,91.1,79.6,74.0,76.3,72.6,70.1,92,80,57,30.37,30.29,0,0,0,0.02
2013-7-19,93.3,79.6,74.0,79.3,73.6,71.2,93,83,59,30.38,30.30,0,0,0,0.24
2013-8-11,96.3,86.2,77.6,78.5,75.4,73.2,88,71,49,30.41,30.32,0,0,0,0.00
2013-8-12,96.9,85.9,76.5,79.3,76.8,72.9,91,75,52,30.39,30.27,0,0,0,0.00
2013-8-13,96.3,86.6,77.6,78.5,76.0,73.5,89,71,49,30.31,30.20,0,0,0,0.00
2013-8-14,96.5,86.3,77.1,80.7,75.8,73.0,90,72,54,30.26,30.19,0,0,0,0.00
2013-8-15,95.4,85.4,76.5,78.1,75.3,72.3,88,73,54,30.29,30.21,0,0,0,0.00
2013-8-16,94.7,85.8,79.4,76.6,75.0,73.8,85,71,53,30.30,30.22,0,0,0,0.00
2013-8-17,96.3,85.5,76.9,80.0,76.0,72.3,92,74,55,30.32,30.24,0,0,0,0.09
2013-8-18,93.3,82.2,76.4,79.0,75.7,72.9,92,81,57,30.34,30.26,0,0,0,0.21
2013-8-19,96.2,83.4,73.8,79.1,73.5,67.2,93,74,47,30.31,30.21,27,1,27,1.61
2013-8-20,74.9,74.1,73.5,72.7,72.0,71.3,94,93,93,30.31,30.24,27,24,27,0.00